Wetbulb
53.15 51.27 49.08 51.63 52.02 49.95 48.67 47.10 47.13 50.20 51.95 51.86 51.59 52.04 54.31 53.47 53.69 53.64 54.25 54.78 55.14 56.18 58.43 57.53 55.88 55.04 53.72 52.71 52.05 52.16 51.98 53.14 53.59 53.36 53.51 53.62 53.70 54.33 53.53 53.29 52.25 52.09 52.28 51.31
51.06 48.89 52.52 51.71 50.48 49.41 48.87 47.03 46.53 49.39 50.65 51.80 49.66 50.44 53.10 51.79 53.21 54.49 54.76 54.58 55.23 56.07 55.03 54.45 53.37 52.86 53.11 52.03 51.98 51.83 52.20 52.43 53.73 54.04 54.33 54.76 54.52 54.96 54.12 52.58 52.24 51.86 51.67 51.27
49.09 51.11 51.91 50.78 49.44 47.97 46.03 45.93 46.30 46.88 49.59 50.94 49.03 48.61 49.85 51.14 52.39 53.62 55.09 56.26 56.31 55.74 54.67 53.55 52.33 52.42 53.21 51.87 51.42 51.97 52.00 52.65 53.37 54.32 54.08 54.36 54.67 54.13 52.32 51.21 50.55 50.62 50.80 50.56
50.31 51.69 50.30 49.21 48.23 48.61 44.91 47.58 45.43 45.43 46.58 43.03 49.14 41.97 46.06 46.41 48.83 50.27 53.05 54.41 55.54 56.28 56.66 55.18 52.96 51.76 52.55 52.90 52.87 52.63 51.98 52.37 53.44 54.13 54.87 54.66 53.80 53.18 54.11 52.46 51.22 50.05 50.58 50.10
49.33 47.43 46.62 46.63 48.25 48.55 47.50 46.83 45.37 44.30 45.80 43.19 42.16 43.57 46.56 43.81 45.65 47.43 50.53 53.37 55.00 56.41 56.87 55.54 53.30 53.67 53.42 53.39 52.36 52.60 52.44 52.71 53.73 54.00 55.55 55.23 54.41 54.92 54.70 52.55 50.28 49.89 50.12 50.09
49.79 49.22 47.50 48.42 47.60 47.77 48.04 46.14 44.85 43.17 41.96 37.79 41.97 41.66 43.01 42.99 44.66 45.74 48.24 52.05 53.49 55.18 56.44 56.44 54.57 53.68 52.41 52.88 52.79 52.33 52.22 52.36 53.77 53.99 54.95 54.83 55.02 54.27 52.94 51.19 49.53 49.10 49.37 49.31
44.86 45.54 47.06 48.82 46.34 47.39 46.60 45.26 39.26 37.40 37.29 36.52 40.10 38.78 42.67 43.90 45.38 45.39 46.38 48.84 50.19 54.12 55.30 54.95 51.22 51.54 51.89 51.61 52.07 52.30 52.55 52.09 53.61 53.55 54.48 54.80 55.21 55.12 54.40 52.12 50.07 48.71 48.44 47.09
41.16 39.02 45.42 47.17 47.56 45.79 44.90 45.16 40.31 31.85 33.42 36.77 40.21 37.94 43.36 45.22 45.82 46.46 46.91 47.16 47.96 49.86 54.11 54.49 52.70 52.39 51.88 51.76 52.22 52.80 52.40 51.96 52.95 53.53 53.56 54.00 54.28 54.32 54.27 52.18 50.23 49.41 47.57 45.84
39.60 39.40 45.05 45.38 46.98 47.96 43.67 41.88 44.66 38.40 36.44 36.43 40.07 42.18 45.93 44.61 45.08 45.85 46.11 46.11 46.19 47.16 47.62 51.05 50.93 51.37 51.43 51.50 52.20 53.02 52.97 52.49 52.50 53.13 53.15 52.65 53.17 53.23 52.10 51.08 49.56 46.80 45.44 44.04
44.03 38.59 42.93 43.63 46.48 46.18 46.00 46.48 40.69 39.18 33.63 31.39 36.31 37.45 40.73 42.91 44.12 45.19 45.89 45.45 45.75 47.50 48.37 48.62 48.81 50.07 50.95 51.83 52.42 53.41 53.69 52.67 52.62 52.39 51.76 50.98 51.01 51.05 49.54 47.57 45.31 44.56 44.37 43.92
44.42 42.88 40.42 42.93 42.24 42.53 42.90 42.04 40.78 41.88 38.58 35.02 33.32 37.80 45.02 44.70 45.76 45.92 46.74 45.38 46.31 46.93 47.28 48.22 49.13 49.52 50.71 51.37 51.58 52.38 52.30 50.87 50.16 49.59 48.57 48.24 47.63 47.17 45.72 43.16 43.40 44.51 42.88 39.77
45.28 43.13 38.13 40.19 42.87 44.56 44.60 43.83 43.70 40.30 35.56 36.39 36.70 38.13 44.62 46.11 45.88 47.55 46.88 45.52 46.40 46.65 46.87 47.31 47.81 48.72 49.64 50.06 50.86 50.57 49.53 48.27 48.03 47.34 46.83 45.74 45.34 44.53 42.67 41.65 42.52 42.65 40.35 38.65
44.10 40.10 36.59 37.38 40.86 42.37 41.47 42.30 40.82 40.56 40.20 36.69 36.51 39.09 44.53 45.20 44.40 46.19 46.55 45.78 46.23 46.13 45.91 45.75 45.92 46.28 46.82 47.15 46.89 46.34 46.55 45.79 45.62 45.22 44.38 43.81 43.30 42.35 40.16 40.12 41.46 39.98 37.20 36.45
45.40 40.32 39.79 35.39 39.31 41.64 38.29 39.68 39.61 42.05 38.25 38.67 38.97 42.02 43.15 44.55 44.46 44.95 45.49 46.44 46.21 45.76 44.30 43.69 43.81 44.06 44.20 44.58 44.39 44.01 43.70 44.44 44.06 43.67 42.94 41.94 41.17 39.65 38.67 39.79 38.81 36.38 36.97 37.64
43.83 38.61 38.45 39.35 40.85 40.49 41.34 40.20 39.12 39.06 41.77 39.25 42.25 40.91 45.30 46.20 45.87 46.24 46.16 45.62 44.45 43.86 42.79 42.56 42.38 42.49 42.59 42.48 42.45 42.36 42.46 42.44 42.51 41.52 40.83 39.63 39.10 37.75 38.47 37.15 35.69 37.27 37.18 36.64
41.68 38.33 38.00 37.91 40.25 39.98 38.93 40.13 40.87 41.08 39.38 41.19 40.64 41.60 46.45 45.12 46.53 44.75 44.87 44.93 44.12 43.71 42.61 41.74 41.25 41.10 40.82 40.66 40.61 40.50 40.45 40.59 41.12 39.82 38.34 37.67 36.30 36.16 34.62 35.21 35.82 35.66 35.34 35.17
40.34 38.60 35.97 34.95 38.44 38.67 35.36 39.15 40.21 40.87 42.10 43.19 39.58 45.71 44.76 43.69 44.22 45.70 45.78 45.65 44.96 44.03 42.36 41.41 41.01 40.98 40.55 40.06 40.05 39.67 39.46 39.96 39.19 37.73 35.97 34.34 33.93 32.81 34.17 34.40 34.28 33.85 33.77 34.13
41.14 39.29 35.07 33.89 36.35 30.28 41.41 43.43 44.73 42.78 43.44 44.11 44.03 44.85 45.98 46.88 46.79 47.60 48.63 47.18 45.59 43.98 42.69 41.84 41.03 40.04 39.99 40.10 40.16 39.44 39.23 38.42 36.92 34.95 33.13 33.26 34.28 33.41 33.31 33.35 32.84 32.80 33.23 32.70
44.02 39.75 35.89 33.66 32.96 36.54 39.73 42.02 42.35 41.74 43.02 45.42 44.96 46.30 45.37 44.30 45.54 45.80 48.00 48.68 47.26 45.12 44.16 42.72 41.56 40.10 39.39 39.12 39.12 38.68 37.38 35.49 33.66 33.17 33.81 33.93 33.57 32.49 32.28 31.72 31.74 32.09 32.04 31.77
42.61 43.47 39.68 31.38 29.83 28.56 39.75 44.01 45.69 45.76 39.01 46.75 46.34 47.22 44.60 44.86 42.61 46.93 47.06 47.87 46.32 45.04 43.30 40.99 39.83 39.10 38.66 38.09 38.30 37.29 35.84 35.31 34.25 34.17 33.76 33.73 33.41 32.67 31.85 31.49 31.06 31.10 31.46 30.90
35.53 35.47 34.49 33.71 34.23 36.85 42.64 43.36 45.01 38.14 41.77 46.38 46.26 46.36 44.71 44.87 47.23 45.69 47.88 46.54 45.31 43.78 41.42 40.27 39.12 38.29 38.09 37.62 37.67 36.00 35.20 34.58 34.74 34.34 33.76 33.27 33.14 32.58 32.06 31.38 31.10 30.62 30.45 30.19
35.58 33.94 33.41 33.80 32.68 31.93 44.76 44.17 41.17 47.27 46.05 47.39 46.75 46.50 45.97 45.20 44.82 45.57 45.11 43.34 42.43 41.30 39.77 39.59 38.53 37.58 36.95 37.23 37.03 35.24 34.78 34.77 34.36 33.72 32.86 32.50 32.50 31.57 31.24 30.88 30.16 30.08 29.56 28.82
34.13 38.52 36.07 36.90 38.59 44.50 45.34 44.95 46.84 46.81 46.73 48.08 48.00 46.75 46.63 44.32 44.10 43.61 41.95 41.48 40.78 39.73 39.59 39.66 38.25 35.91 36.07 36.65 37.16 34.89 33.75 34.00 33.30 32.70 32.13 31.97 31.98 31.46 31.26 30.07 29.59 29.32 29.12 28.78
39.18 41.85 38.94 39.19 41.68 42.41 43.87 46.81 46.18 46.13 46.15 47.22 47.72 47.17 46.06 44.65 43.87 42.31 41.40 40.15 39.26 39.06 38.47 38.57 36.83 35.12 34.15 35.55 35.64 35.71 33.79 33.73 32.63 31.88 31.34 31.46 31.07 30.49 30.37 30.09 29.76 29.59 28.86 28.54
37.08 36.91 37.22 37.65 41.53 42.86 44.10 44.04 44.40 45.20 46.80 46.85 46.54 45.94 46.27 44.81 42.97 41.88 40.83 39.88 39.32 38.41 37.75 37.21 36.40 35.06 33.97 34.44 34.11 33.92 33.42 32.87 31.64 31.13 30.53 30.62 30.65 30.08 29.29 29.43 29.74 29.42 30.07 29.82
36.30 35.19 36.61 36.67 42.60 41.87 42.79 43.89 44.16 45.12 45.24 46.19 45.56 44.45 44.68 44.93 42.39 41.82 40.54 40.10 38.49 37.19 36.71 36.29 35.96 34.77 33.28 33.45 32.92 32.86 33.01 32.48 31.29 30.04 30.10 29.95 29.40 29.12 28.57 28.41 28.07 28.41 28.82 28.32
MSLP
1013.05 1013.22 1013.08 1013.21 1013.41 1013.83 1014.00 1014.16 1014.02 1013.58 1013.95 1014.20 1013.98 1013.64 1014.16 1015.11 1015.98 1016.48 1017.00 1017.52 1018.10 1018.52 1019.19 1020.12 1021.32 1022.32 1023.13 1024.16 1024.76 1025.31 1025.91 1026.62 1027.15 1027.64 1027.98 1028.42 1028.63 1029.04 1029.36 1029.55 1029.89 1030.05 1030.18 1030.32
1013.43 1013.09 1012.96 1013.13 1013.40 1013.62 1013.86 1013.89 1013.82 1013.49 1013.75 1014.12 1013.93 1013.36 1013.71 1014.39 1014.78 1015.19 1015.82 1016.52 1017.14 1018.10 1018.98 1019.82 1020.97 1021.96 1022.68 1023.43 1024.26 1024.98 1025.53 1026.29 1026.80 1027.17 1027.66 1027.95 1028.52 1029.10 1029.39 1029.87 1030.11 1030.24 1030.38 1030.59
1013.03 1013.05 1013.04 1013.33 1013.36 1013.52 1013.56 1013.62 1013.80 1013.73 1014.08 1014.17 1013.99 1013.32 1013.21 1013.64 1014.16 1014.67 1015.14 1015.65 1016.47 1017.35 1018.18 1019.15 1020.25 1021.34 1022.32 1023.04 1023.69 1024.36 1025.08 1025.79 1026.48 1026.96 1027.57 1028.18 1028.74 1029.31 1029.64 1029.96 1030.14 1030.41 1030.61 1030.74
1013.09 1013.02 1013.21 1013.34 1013.38 1013.51 1013.29 1013.11 1013.59 1013.77 1013.95 1013.95 1013.98 1013.17 1012.97 1013.19 1013.62 1013.85 1014.36 1015.07 1015.69 1016.47 1017.46 1018.24 1019.59 1020.50 1021.26 1022.03 1023.07 1023.94 1024.74 1025.41 1026.15 1026.75 1026.93 1027.41 1027.73 1028.38 1028.87 1029.41 1029.89 1030.49 1030.80 1030.99
1013.10 1013.07 1013.15 1013.34 1013.08 1013.26 1013.18 1013.19 1013.65 1013.94 1014.17 1014.20 1014.11 1013.90 1012.95 1013.28 1013.10 1013.24 1013.96 1014.48 1015.05 1015.66 1016.34 1017.29 1018.33 1019.11 1020.49 1021.68 1022.47 1023.40 1024.32 1025.11 1025.78 1026.37 1026.57 1027.08 1027.57 1028.11 1028.72 1029.32 1030.04 1030.52 1030.95 1031.16
1013.17 1013.10 1013.05 1012.98 1013.03 1013.13 1013.31 1013.72 1014.31 1014.79 1014.79 1014.57 1013.95 1013.99 1013.02 1013.39 1013.60 1013.91 1014.42 1014.52 1014.71 1015.36 1016.13 1016.84 1017.84 1019.14 1020.20 1021.40 1022.27 1023.01 1023.74 1024.60 1025.44 1026.06 1026.50 1026.83 1027.24 1027.90 1028.55 1029.24 1029.85 1030.42 1030.83 1031.26
1013.73 1013.48 1013.15 1012.99 1013.19 1013.49 1013.70 1014.09 1014.78 1015.11 1015.19 1014.84 1014.85 1014.63 1013.32 1013.59 1014.31 1014.92 1015.17 1015.32 1015.48 1015.79 1016.18 1016.84 1017.59 1018.54 1019.61 1020.52 1021.43 1022.40 1023.13 1023.93 1024.86 1025.61 1026.21 1026.65 1027.09 1027.62 1028.14 1028.91 1029.52 1030.17 1030.71 1031.31
1014.02 1013.94 1013.45 1013.01 1013.02 1013.34 1014.01 1014.43 1015.04 1015.26 1015.64 1015.39 1015.30 1014.46 1013.61 1014.18 1014.94 1015.62 1015.93 1016.10 1016.15 1016.28 1016.44 1016.77 1017.33 1018.16 1019.18 1020.21 1021.07 1021.83 1022.51 1023.44 1024.38 1025.19 1025.87 1026.55 1027.04 1027.56 1028.09 1028.68 1029.34 1030.02 1030.76 1031.56
1014.25 1014.05 1013.38 1013.26 1013.18 1013.46 1014.48 1015.07 1015.41 1015.85 1016.86 1016.29 1015.13 1014.41 1013.75 1014.43 1015.14 1015.77 1016.18 1016.62 1016.99 1017.13 1017.14 1017.23 1017.72 1018.35 1019.17 1020.00 1020.71 1021.29 1022.22 1023.14 1024.11 1024.97 1025.79 1026.48 1027.05 1027.48 1028.06 1028.75 1029.54 1030.48 1031.31 1032.01
1013.89 1014.17 1013.76 1013.64 1013.62 1014.08 1014.05 1014.89 1015.84 1016.52 1016.79 1016.18 1015.29 1014.78 1013.99 1014.34 1015.00 1015.74 1016.33 1017.14 1017.59 1017.87 1017.90 1018.03 1018.24 1018.65 1019.21 1019.87 1020.54 1021.27 1022.06 1023.00 1023.98 1025.00 1025.87 1026.59 1027.21 1027.65 1028.46 1029.35 1030.13 1030.92 1031.71 1032.31
1013.83 1014.19 1014.51 1014.20 1013.89 1013.89 1014.80 1015.10 1015.94 1016.35 1016.56 1015.86 1015.28 1014.24 1013.84 1014.06 1014.55 1015.42 1016.34 1017.30 1017.98 1018.45 1018.85 1019.04 1019.06 1019.18 1019.57 1020.16 1020.79 1021.43 1022.18 1023.15 1024.22 1025.21 1026.15 1026.83 1027.70 1028.34 1029.16 1030.06 1030.73 1031.22 1031.97 1032.78
1013.92 1014.08 1014.39 1014.21 1014.17 1014.12 1014.21 1014.61 1015.18 1015.96 1016.61 1016.37 1015.57 1014.12 1013.91 1014.27 1014.79 1015.45 1016.41 1017.61 1018.56 1019.25 1019.69 1019.91 1019.99 1019.97 1020.17 1020.63 1021.27 1021.97 1022.68 1023.55 1024.64 1025.59 1026.41 1027.27 1028.14 1028.94 1029.71 1030.51 1031.04 1031.67 1032.44 1033.10
1014.14 1014.43 1014.56 1014.52 1014.87 1014.73 1014.61 1014.87 1015.43 1015.71 1015.89 1015.58 1015.04 1013.94 1014.07 1014.47 1014.87 1015.57 1016.43 1017.74 1018.82 1019.63 1020.10 1020.32 1020.67 1020.95 1021.21 1021.59 1022.13 1022.82 1023.48 1024.29 1025.22 1026.07 1026.86 1027.81 1028.70 1029.48 1030.32 1030.92 1031.47 1032.16 1032.96 1033.40
1014.26 1014.47 1014.17 1013.96 1013.84 1013.99 1014.53 1014.57 1015.06 1015.04 1015.30 1014.75 1013.99 1013.27 1013.69 1014.20 1014.78 1015.63 1016.60 1017.80 1018.83 1019.73 1020.42 1020.93 1021.39 1021.71 1022.04 1022.47 1023.03 1023.59 1024.29 1025.01 1025.73 1026.52 1027.38 1028.29 1029.26 1030.05 1030.70 1031.22 1031.90 1032.71 1032.90 1033.30
1015.02 1014.78 1014.51 1013.88 1013.54 1013.56 1013.34 1013.61 1014.21 1014.33 1013.75 1013.57 1012.55 1012.77 1012.44 1013.20 1013.96 1014.88 1016.43 1017.89 1018.90 1019.78 1020.60 1021.16 1021.61 1022.10 1022.53 1022.99 1023.70 1024.28 1024.98 1025.74 1026.34 1027.01 1027.97 1029.03 1029.92 1030.58 1031.06 1031.78 1032.46 1032.81 1033.27 1033.82
1015.79 1015.38 1014.98 1014.10 1013.46 1013.45 1013.28 1013.25 1013.38 1013.35 1013.31 1012.94 1012.49 1012.00 1012.08 1012.97 1013.84 1015.00 1015.96 1017.31 1018.39 1019.35 1020.32 1021.13 1021.75 1022.32 1022.80 1023.37 1024.04 1024.78 1025.48 1026.33 1026.94 1027.59 1028.57 1029.62 1030.41 1031.06 1031.73 1032.33 1032.83 1033.29 1033.81 1034.31
1016.40 1016.03 1015.73 1014.71 1013.85 1013.55 1013.32 1012.61 1012.37 1012.35 1012.30 1011.83 1011.73 1010.72 1012.08 1012.84 1013.59 1014.03 1014.98 1016.25 1017.43 1018.66 1019.85 1020.81 1021.56 1022.32 1023.06 1023.77 1024.40 1025.07 1025.90 1026.78 1027.46 1028.26 1029.36 1030.23 1030.93 1031.64 1032.23 1032.76 1033.22 1033.68 1034.19 1034.66
1016.69 1016.40 1016.30 1015.46 1014.57 1013.25 1011.54 1011.18 1010.95 1011.01 1010.86 1011.01 1010.76 1010.68 1011.22 1011.84 1012.63 1013.46 1014.21 1015.26 1016.66 1018.03 1019.20 1020.44 1021.39 1022.37 1023.38 1024.20 1024.90 1025.51 1026.34 1027.19 1028.02 1028.93 1029.90 1030.71 1031.33 1032.00 1032.68 1033.18 1033.59 1034.03 1034.48 1034.89
1016.58 1016.41 1016.31 1015.96 1014.67 1012.89 1011.51 1010.91 1010.64 1010.43 1009.90 1010.11 1010.29 1010.31 1011.14 1012.29 1013.05 1013.26 1013.78 1014.75 1015.96 1017.34 1018.68 1019.99 1021.31 1022.31 1023.43 1024.35 1025.07 1025.72 1026.66 1027.67 1028.53 1029.39 1030.11 1030.89 1031.54 1032.21 1032.88 1033.30 1033.78 1034.22 1034.60 1035.05
1015.87 1015.93 1016.13 1016.37 1014.88 1012.82 1011.15 1010.11 1009.91 1009.81 1009.55 1009.15 1009.74 1009.92 1010.86 1012.18 1012.67 1011.82 1012.86 1014.38 1015.90 1017.35 1018.66 1019.80 1021.33 1022.44 1023.38 1024.52 1025.35 1025.98 1026.87 1027.76 1028.63 1029.42 1030.27 1031.14 1031.72 1032.23 1032.85 1033.36 1033.81 1034.28 1034.62 1035.00
1016.54 1016.63 1015.97 1015.57 1014.69 1012.75 1011.11 1010.72 1010.56 1009.90 1009.49 1008.97 1009.39 1010.17 1011.13 1011.54 1011.57 1012.24 1012.95 1014.51 1015.92 1017.21 1018.74 1020.12 1021.28 1021.96 1023.08 1024.32 1025.23 1026.03 1026.94 1027.73 1028.65 1029.55 1030.42 1031.14 1031.75 1032.28 1032.85 1033.40 1033.84 1034.19 1034.54 1035.00
1016.51 1016.35 1016.05 1015.45 1014.43 1012.73 1011.23 1011.21 1010.94 1009.51 1009.01 1009.06 1009.51 1010.02 1010.70 1011.47 1012.14 1012.91 1014.07 1015.18 1016.23 1017.33 1018.83 1019.99 1020.99 1022.07 1023.15 1024.08 1024.83 1025.92 1026.85 1027.93 1028.83 1029.67 1030.42 1031.06 1031.74 1032.39 1032.89 1033.29 1033.88 1034.24 1034.52 1034.90
1017.05 1016.24 1015.86 1015.30 1013.35 1012.30 1011.93 1011.50 1011.05 1010.75 1010.34 1009.67 1009.66 1009.75 1010.70 1011.78 1012.55 1013.36 1014.40 1015.68 1016.88 1017.90 1018.99 1020.14 1021.11 1022.34 1023.39 1024.07 1024.65 1025.62 1027.04 1028.01 1028.93 1029.75 1030.44 1031.13 1031.85 1032.46 1032.93 1033.34 1033.85 1034.16 1034.52 1034.72
1017.08 1016.74 1016.03 1015.14 1013.51 1013.19 1012.77 1012.45 1012.22 1011.81 1011.43 1010.67 1010.46 1010.34 1010.49 1011.33 1012.72 1013.67 1014.60 1015.68 1016.99 1018.19 1019.07 1020.18 1021.40 1022.42 1023.47 1024.27 1025.06 1025.81 1027.13 1028.08 1028.94 1029.69 1030.58 1031.30 1031.77 1032.40 1032.97 1033.31 1033.53 1033.78 1034.18 1034.45
1018.00 1017.28 1016.19 1015.35 1014.30 1013.47 1013.29 1013.26 1013.17 1012.37 1011.89 1010.94 1010.98 1011.28 1010.80 1011.17 1012.42 1013.45 1014.49 1015.55 1016.66 1017.99 1019.27 1020.28 1021.14 1022.20 1023.43 1024.39 1025.21 1026.27 1027.22 1028.10 1028.96 1029.85 1030.69 1031.30 1031.79 1032.29 1032.88 1033.28 1033.58 1033.65 1033.91 1034.29
1017.75 1016.65 1015.92 1015.00 1014.82 1014.81 1013.93 1014.09 1013.69 1012.81 1012.27 1011.92 1011.52 1011.63 1011.53 1011.16 1011.92 1013.27 1014.35 1015.17 1016.26 1017.57 1018.96 1020.20 1021.27 1022.35 1023.52 1024.44 1025.33 1026.36 1027.24 1028.14 1028.98 1029.79 1030.50 1031.08 1031.72 1032.23 1032.71 1033.11 1033.85 1034.38 1034.39 1034.61
Wind_Speed
2 4 7 9 5 2 2 4 7 11 3 8 14 16 12 8 10 11 13 14 16 17 15 14 13 12 13 12 13 13 13 12 10 8 8 6 6 5 5 4 6 7 6 7
3 8 9 3 3 4 4 4 8 10 3 9 2 14 9 11 10 15 16 16 18 16 13 14 14 14 15 16 15 14 14 14 11 8 6 4 5 4 4 4 5 6 6 6
7 3 4 5 3 4 4 4 4 5 3 3 2 6 5 5 10 7 13 14 14 18 16 15 16 16 15 17 17 16 16 15 12 11 7 6 6 5 4 5 5 4 6 6
5 3 5 4 5 5 4 8 5 2 3 4 2 4 4 2 8 11 13 14 16 19 17 14 16 17 19 19 16 15 15 15 12 13 10 13 9 8 4 5 5 5 6 6
6 5 4 5 9 7 5 4 3 2 2 1 3 4 3 3 7 8 7 13 17 19 20 19 20 19 18 17 17 15 15 15 14 13 12 10 9 5 6 6 9 7 6 6
3 1 4 5 1 2 7 4 5 3 2 3 4 6 12 5 4 4 4 8 14 15 16 15 13 14 15 14 15 15 16 16 14 14 12 12 12 9 8 8 7 6 5 5
2 2 3 2 3 2 3 4 1 3 2 7 3 3 11 2 3 5 9 2 3 9 12 13 15 16 16 19 18 16 17 17 16 15 13 12 11 10 10 10 7 8 6 6
7 4 6 4 5 5 4 4 5 5 3 2 1 5 4 1 1 2 2 3 1 2 7 12 14 14 15 17 18 18 18 17 16 14 13 9 8 5 5 8 8 6 7 7
5 5 2 2 2 4 5 4 1 5 2 2 3 5 8 3 1 1 3 4 5 4 3 4 8 10 12 14 17 17 17 15 14 13 11 9 8 9 8 11 10 8 10 9
7 2 2 2 3 4 4 8 4 2 4 5 2 4 8 2 6 3 3 3 4 5 6 5 5 7 9 12 13 14 15 15 14 13 11 10 10 11 12 12 13 13 11 11
6 3 1 2 6 9 4 3 4 4 2 4 2 4 4 5 7 10 6 4 4 4 5 5 5 5 8 9 12 13 14 15 14 13 13 14 12 13 13 13 13 12 11 10
4 5 6 6 1 1 2 5 7 5 5 1 1 5 2 6 6 9 9 7 5 4 5 6 6 7 9 10 11 12 12 14 14 14 15 15 15 15 14 12 12 11 11 9
5 3 4 2 1 1 4 4 4 4 3 8 5 5 1 4 5 9 12 10 7 6 6 7 8 8 9 10 11 12 13 15 15 15 16 16 15 15 13 12 11 11 8 8
5 4 6 10 8 5 5 6 5 5 4 5 8 10 6 7 8 10 11 11 10 8 7 7 8 9 10 11 12 13 14 14 16 16 16 16 15 14 11 12 11 8 8 9
1 4 5 6 8 6 8 8 11 8 9 10 11 11 10 7 13 14 11 11 11 10 9 9 10 10 12 13 13 14 14 15 16 17 16 15 14 12 12 11 9 9 9 8
3 1 1 4 6 10 9 6 10 10 2 10 4 13 6 0 5 12 15 16 14 13 12 11 11 13 13 14 14 15 15 15 15 16 16 14 13 12 11 10 10 9 9 8
2 2 2 3 2 3 5 11 11 6 6 6 9 15 7 6 10 16 19 19 18 16 15 14 14 13 13 14 15 16 16 15 15 15 14 12 12 11 10 10 10 9 8 7
2 2 1 2 1 7 2 1 10 13 8 14 6 7 8 6 6 8 15 20 19 18 17 15 14 14 14 15 15 16 15 14 15 14 13 12 12 11 11 10 10 8 7 6
10 3 2 2 4 6 4 4 7 9 11 13 16 11 6 5 5 5 15 18 19 19 17 16 15 16 17 17 16 16 15 14 14 13 13 12 12 12 11 10 9 7 6 6
11 6 4 3 3 6 4 4 5 6 6 7 13 13 11 11 7 9 18 19 18 18 17 18 18 18 18 16 16 16 15 14 14 13 13 11 11 12 11 11 9 6 5 6
4 2 11 5 6 6 8 5 2 7 5 2 5 7 12 10 3 2 17 18 19 20 20 20 20 19 18 17 16 16 15 14 14 13 13 12 11 11 11 10 8 7 6 6
3 4 5 3 6 12 5 3 5 4 1 3 4 7 14 5 6 14 16 18 20 21 22 21 19 17 17 18 16 16 15 14 14 14 13 12 11 9 9 10 8 7 6 5
4 3 2 6 4 4 6 6 7 8 8 4 4 6 11 10 9 15 16 18 18 21 20 18 18 18 16 16 15 16 14 15 14 13 12 11 10 9 9 9 8 6 5 4
3 6 5 5 1 10 15 11 13 13 13 14 8 7 15 12 14 13 16 18 18 18 19 18 19 18 17 14 13 14 16 15 14 13 11 10 10 9 8 6 5 4 5 4
4 9 5 9 13 12 2 13 18 18 15 12 6 8 13 15 17 17 16 18 18 18 17 18 18 17 17 15 14 15 15 15 13 12 10 9 7 8 7 5 3 3 3 3
7 8 5 5 4 4 12 15 21 18 16 15 10 9 10 14 17 17 17 18 19 19 18 17 17 17 17 15 15 15 15 15 13 11 9 7 7 7 6 5 5 5 5 3
Wind_Direction
141 189 215 223 209 117 165 218 252 264 205 201 224 249 240 189 209 212 203 196 198 205 196 189 188 178 169 165 165 166 164 167 155 150 149 147 143 134 123 119 121 121 122 114
126 216 223 192 165 199 215 255 272 280 186 217 262 265 249 199 220 216 208 201 203 198 192 184 177 178 180 171 175 172 175 169 174 165 158 153 146 133 124 126 124 128 128 119
185 196 157 189 192 214 214 214 238 266 89 204 186 271 259 212 236 227 220 219 203 197 193 190 183 185 181 181 178 180 178 175 177 169 145 123 112 120 137 144 136 127 119 123
209 167 202 194 242 188 261 204 230 192 212 268 246 274 271 228 245 227 228 212 205 199 198 189 188 186 189 187 179 179 178 176 178 174 174 169 172 170 173 162 138 126 129 124
201 169 184 221 235 178 246 139 152 110 135 262 188 250 263 326 271 250 231 230 214 202 193 194 196 194 188 180 180 177 176 178 177 180 182 174 176 164 148 147 142 134 126 118
214 234 164 210 140 199 142 96 63 69 100 229 263 242 265 227 261 315 317 294 218 199 194 201 192 183 181 178 178 177 177 180 178 182 184 182 176 165 154 157 156 150 136 117
2 237 293 175 131 83 89 103 252 244 226 250 24 212 255 301 336 310 318 20 112 180 186 189 180 184 182 183 181 180 180 180 180 181 182 185 182 177 173 165 165 156 141 124
189 229 193 183 197 182 181 185 172 231 222 281 117 239 256 252 46 356 358 345 50 174 200 199 194 190 187 185 184 185 183 179 179 179 179 175 167 167 163 165 155 146 126 116
165 251 289 227 124 181 154 191 101 109 44 264 254 269 272 152 171 25 33 56 44 48 54 201 186 179 180 183 187 184 184 177 175 170 160 150 147 148 145 138 129 123 118 116
191 226 222 121 123 56 192 142 136 50 160 235 221 270 250 258 222 239 194 127 81 68 68 77 134 165 175 182 181 180 178 172 160 144 137 132 131 128 128 127 123 117 113 114
143 153 193 159 200 180 146 169 71 125 189 216 223 239 216 244 221 200 190 158 111 81 65 65 85 137 150 153 161 163 158 147 138 134 132 127 124 122 118 114 117 119 117 120
199 153 196 196 107 219 189 188 169 176 191 226 283 254 180 263 264 206 175 162 133 105 95 87 91 110 125 131 141 141 135 133 134 132 128 123 122 121 117 114 116 118 116 115
179 202 204 227 105 11 210 179 122 100 104 188 192 249 184 279 252 208 176 164 152 132 110 91 94 106 115 120 124 126 129 128 130 130 126 123 121 118 114 116 117 115 107 116
171 178 186 222 229 157 184 191 178 155 167 180 222 263 216 228 224 199 185 168 156 149 134 123 121 116 118 119 124 125 125 130 131 128 125 121 121 118 117 118 118 113 120 121
115 218 196 234 242 206 205 183 179 188 204 211 251 224 250 224 217 207 178 163 159 155 153 148 140 130 128 124 125 125 126 130 131 126 121 119 119 119 119 117 116 117 116 119
6 238 234 251 222 213 231 234 206 223 222 245 212 253 230 327 154 172 181 175 178 172 164 157 146 141 136 136 134 132 131 132 130 124 122 124 122 122 117 117 117 114 113 119
20 77 27 253 304 146 259 212 204 201 200 199 217 245 161 188 206 199 189 188 184 173 167 163 155 148 144 144 142 138 134 132 126 124 123 122 122 120 122 120 121 118 119 129
232 118 168 263 54 231 240 8 222 210 215 211 257 232 204 214 210 213 203 188 179 172 166 162 154 148 146 143 140 134 135 131 128 125 126 128 128 124 125 125 121 123 132 135
211 159 178 244 222 313 281 191 180 184 248 207 230 238 205 138 145 235 201 193 180 171 164 158 155 149 146 146 144 138 135 131 130 133 135 135 135 133 138 134 133 130 139 139
192 210 193 158 224 236 215 221 185 152 250 229 221 231 186 156 215 228 180 176 168 159 158 153 152 148 146 149 148 142 140 140 140 142 140 140 141 143 146 143 140 131 134 138
135 210 211 198 240 273 266 277 212 194 235 175 198 215 169 203 236 50 158 164 160 158 156 151 154 155 151 151 151 144 146 148 143 140 141 145 148 149 148 143 141 137 133 138
251 183 200 183 206 251 197 136 211 245 225 205 203 193 200 170 127 142 153 156 158 157 156 159 156 155 154 155 152 149 152 145 143 145 147 147 148 149 152 148 144 146 143 149
253 232 240 221 238 335 337 334 348 345 314 290 251 174 176 159 163 155 156 158 160 159 159 161 158 152 157 160 159 151 147 148 147 148 147 149 153 155 157 155 155 156 163 177
265 29 256 308 223 334 314 324 0 346 324 309 287 222 176 167 162 159 158 158 160 164 163 161 158 157 158 161 160 146 150 150 148 148 154 158 161 159 163 162 164 172 183 200
270 334 306 288 289 310 119 352 345 330 328 328 306 259 201 161 170 166 165 165 163 162 162 164 163 161 159 157 149 149 151 151 151 152 159 163 158 164 162 165 170 183 181 230
229 240 238 276 293 258 287 319 326 317 333 328 295 261 220 180 167 169 170 166 161 162 162 165 163 158 158 156 150 154 155 157 154 157 162 160 157 158 161 160 141 87 88 138